Tracking 22459 objects as of 3-Mar-2021
HD Live streaming from Space Station
objects crossing your sky now

SL-12 DEB

Track SL-12 DEB now!
10-day predictions


NORAD ID: 28985
Int'l Code: 1992-047AN
Perigee: 1,079.9 km
Apogee: 10,365.8 km
Inclination: 64.3 °
Period: 220.6 minutes
Semi major axis: 12093 km
RCS: 0.0601 m2 (small)
Launch date: July 30, 1992
Source: Commonwealth of Independent States (former USSR) (CIS)
Launch site: TYURATAM MISSILE AND SPACE COMPLEX (TTMTR)

Note: This is SATELLITE DEBRIS
aabbcc
Your satellite tracking list
Your tracking list is empty




NASA's NSSDC Master Catalog

Two Line Element Set (TLE):
1 28985U 92047AN  17204.77302108 -.00000007 +00000-0 +10000-3 0  9998
2 28985 064.2643 130.1186 3839125 321.3520 016.6383 06.52765350268402
Source of the keplerian elements: AFSPC